Location: Complexul Astronomic Baia Mare
(47.6577°N, 23.5639°E)
Time: 07:20:46
(UTC+02:00)

ISS - Pass Details

Date: 21 May 2017
Orbit: 402 x 406 km, 51.6° (Epoch: 18 December)

Event Time Altitude Azimuth Distance (km) Brightness Sun altitude
Exits shadow 00:53:12 22° 69° (ENE) 966 -1.8 -21.9°
Drops below altitude 10° 00:54:32 10° 67° (ENE) 1,500 -0.8 -21.9°
Sets 00:56:38 0° 67° (ENE) 2,362 0.3 -21.9°
